    Observer details:
    104 San Marcello Pistoiese.  Observers L. Tesi, G. Fagioli, M. Tombelli,
        M. Mazzucato, F. Dolfi.  Measurers G. Forti, L. Tesi.  0.60-m f/4
        reflector + CCD.
    204 Schiaparelli Observatory.  Observers L. Buzzi, F. Luppi.  Measurer
        L. Buzzi.  0.60-m f/4.64 reflector + CCD.
    213 Observatorio Montcabre.  Observer R. Naves.  Measurer M. Campas.  0.30-m
        f/10 Schmidt-Cassegrain + CCD.
    232 Masquefa Observatory.  Observer E. Reina.  0.25-m f/3.3 Schmidt-Cassegrain
        + CCD.
    349 Ageo.  Observer K. Kadota.  0.25-m f/5.0 reflector + CCD.
    415 Kambah, near Canberra.  Observer D. Herald.  0.36-m f/3.9
        Schmidt-Cassegrain + CCD.
    423 North Ryde.  Observer S. G. McAndrew.  0.20-m f/4 hyperbolic astrograph
        + CCD.
    557 Ondrejov.  Observer K. Hornoch.  0.65-m f/3.6 reflector + CCD.
    644 Palomar Mountain/NEAT.  Observers M. Brown, R. Bambery, K. Lawrence,
        M. Hicks, E. Helin, R. Thicksten.  1.2-m Schmidt + CCD.
    673 Table Mountain Observatory, Wrightwood.  Observer J. Young.  0.61-m f/16
        Cassegrain + CCD.
    A02 Masia Cal Maciarol Modul 8.  Observers J. L. Salto, A. Salto.  Measurer
        J. L. Salto.  0.25-m f/7.2 Schmidt-Cassegrain + CCD.
    A77 Observatoire Chante-Perdrix, Dauban.  Observer F. Kugel.  0.20-m f/5.5
        Schmidt-Cassegrain + CCD.
    A79 Zvezdno Obshtestvo Observatory, Plana.  Observers F. Fratev, E. Mihaylova,
        C. Kaldiev.  Measurer F. Fratev.  0.25-m f/3 reflector + CCD.
    D35 Lulin Observatory.  Observers H.-C. Lin, C.-S. Lin, Q.-z. Ye.  Measurer
        Q.-z. Ye.  0.41-m f/8.8 Ritchey-Chretien + CCD.
    D88 Hiratsuka.  Observer Y. Sugiyama.  0.25-m f/5.0 reflector + CCD.
    E12 Siding Spring Survey.  Observers R. H. McNaught, D. M. Burton.  Measurers
        E. C. Beshore, E. J. Christensen, G. J. Garradd, A. R. Gibbs, A. D. Grauer,
        R. E. Hill, R. A. Kowalski, S. M. Larson, R. H. McNaught.  0.5-m Uppsala
        Schmidt + CCD.
    J76 La Murta.  Observers S. Pastor, J. A. Reyes.  0.40-m f/6.3
        Schmidt-Cassegrain + CCD.
    
    Orbital elements:
        C/2006 P1 (McNaught)
    T 2007 Jan. 12.828 TT                                   MPC
    q   0.17082              (2000.0)            P               Q
                       Peri.  155.971       +0.126805       -0.173610
                       Node   267.414       +0.675225       +0.736344
    e   1.0            Incl.   77.853       +0.726630       -0.653955
    From 125 observations 2006 Aug. 7-28.
    
    Ephemeris:
        C/2006 P1 (McNaught)
    Date    TT    R. A. (2000) Decl.     Delta      r     Elong.  Phase   m1    m2
    2006 08 23    16 26.74   -16 52.1    2.523    2.846    98.0    20.6  16.6
    2006 09 02    16 22.36   -16 13.0    2.558    2.704    87.2    21.9  16.4
    2006 09 12    16 20.60   -15 40.6    2.589    2.559    77.1    22.5  16.1
    2006 09 22    16 21.28   -15 13.9    2.609    2.410    67.5    22.6  15.9
    2006 10 02    16 24.23   -14 51.4    2.614    2.257    58.4    22.2  15.6
    2006 10 12    16 29.24   -14 31.3    2.599    2.099    49.8    21.3  15.3
    2006 10 22    16 36.20   -14 11.6    2.560    1.935    41.8    20.0  14.9
    2006 11 01    16 45.07   -13 49.7    2.494    1.764    34.2    18.4  14.5
    
    Brian G. Marsden             (C) Copyright 2006 MPC           M.P.E.C. 2006-Q49
    

    Read MPEC 2006-Q48 Read MPEC 2006-Q50


    MPEC number:

    Enter an MPEC number in one of the following forms:

    • 1997-B01 (the full form)
    • J97B01 (the packed version of the full form)
    • B01 (the abbreviated form)